LOT723 EPWA-UGTB

Flight info

Callsign LOT723
Flight time 3h 11m
Altitude 37000
Route XIMBA N195 NATEV DCT ROBTU/N0449F350 DCT KENIN/N0451F370 DCT KARIL DCT UDROS UM859 KARDE UN644 ROLIN DCT TAGAR DCT GIMUR
Aircraft B38M/M-SADE2E3FGHIJ1RWYZ/LB1

Departure

Time 2026-04-17 08:17
Airport Warsaw Chopin Airport (EPWA)

Arrival

Time 2026-04-17 11:29
Airport Tbilisi International Airport (UGTB)
Time Latitude Longitude Altitude Speed Heading
2026-04-17 07:51 52.17218 20.96913 336 ft 0 kts 62°
2026-04-17 08:08 52.17217 20.96911 341 ft 2 kts 62°
2026-04-17 08:08 52.17205 20.96874 337 ft 4 kts 62°
2026-04-17 08:09 52.17194 20.96837 339 ft 4 kts 86°
2026-04-17 08:09 52.17202 20.96803 339 ft 4 kts 140°
2026-04-17 08:09 52.17219 20.96785 337 ft 4 kts 152°
2026-04-17 08:09 52.17228 20.96777 340 ft 0 kts 152°
2026-04-17 08:12 52.17226 20.96779 340 ft 1 kts 152°
2026-04-17 08:12 52.17201 20.96802 339 ft 7 kts 152°
2026-04-17 08:13 52.17154 20.96843 336 ft 9 kts 151°
2026-04-17 08:13 52.17095 20.96895 340 ft 11 kts 151°
2026-04-17 08:13 52.17025 20.96958 340 ft 12 kts 151°
2026-04-17 08:14 52.16850 20.97109 341 ft 16 kts 153°
2026-04-17 08:14 52.16746 20.97196 337 ft 18 kts 153°
2026-04-17 08:14 52.16640 20.97289 341 ft 14 kts 148°
2026-04-17 08:14 52.16566 20.97402 340 ft 16 kts 117°
2026-04-17 08:15 52.16518 20.97572 338 ft 17 kts 115°
2026-04-17 08:15 52.16465 20.97758 340 ft 19 kts 114°
2026-04-17 08:15 52.16408 20.97961 346 ft 21 kts 114°
2026-04-17 08:15 52.16347 20.98181 340 ft 22 kts 114°
2026-04-17 08:16 52.16292 20.98377 345 ft 12 kts 115°
2026-04-17 08:16 52.16245 20.98469 341 ft 11 kts 169°
2026-04-17 08:16 52.16171 20.98429 340 ft 12 kts 205°
2026-04-17 08:16 52.16116 20.98360 338 ft 9 kts 260°
2026-04-17 08:17 52.16139 20.98254 340 ft 13 kts 294°
2026-04-17 08:17 52.16263 20.97819 347 ft 82 kts 295°
2026-04-17 08:17 52.16601 20.96610 346 ft 150 kts 294°
2026-04-17 08:17 52.17048 20.94986 1002 ft 161 kts 296°
2026-04-17 08:18 52.17533 20.93280 1861 ft 167 kts 297°
2026-04-17 08:18 52.18037 20.91449 2339 ft 190 kts 295°
2026-04-17 08:18 52.18390 20.89218 2796 ft 219 kts 278°
2026-04-17 08:18 52.18192 20.86614 3300 ft 246 kts 257°
2026-04-17 08:19 52.17715 20.83850 3964 ft 258 kts 259°
2026-04-17 08:19 52.17262 20.81029 4965 ft 258 kts 259°
2026-04-17 08:19 52.16811 20.78179 5886 ft 261 kts 259°
2026-04-17 08:19 52.16361 20.75304 6805 ft 263 kts 260°
2026-04-17 08:20 52.15856 20.72423 7643 ft 270 kts 250°
2026-04-17 08:20 52.14690 20.70024 8488 ft 283 kts 221°
2026-04-17 08:20 52.12829 20.68701 9286 ft 299 kts 193°
2026-04-17 08:20 52.10749 20.68840 10075 ft 310 kts 165°
2026-04-17 08:21 52.08841 20.70566 10610 ft 324 kts 136°
2026-04-17 08:21 52.07260 20.73303 10965 ft 342 kts 132°
2026-04-17 08:21 52.05584 20.76164 11393 ft 356 kts 133°
2026-04-17 08:21 52.03854 20.79091 12080 ft 361 kts 133°
2026-04-17 08:22 52.02104 20.82043 12811 ft 365 kts 133°
2026-04-17 08:22 52.00326 20.85037 13551 ft 369 kts 132°
2026-04-17 08:22 51.98534 20.88049 14252 ft 373 kts 132°
2026-04-17 08:22 51.96717 20.91099 14926 ft 377 kts 132°
2026-04-17 08:23 51.94891 20.94162 15604 ft 380 kts 132°
2026-04-17 08:23 51.93043 20.97255 16294 ft 383 kts 132°
2026-04-17 08:23 51.91177 21.00375 16920 ft 388 kts 132°
2026-04-17 08:23 51.89293 21.03523 17562 ft 391 kts 131°
2026-04-17 08:24 51.87389 21.06698 18181 ft 395 kts 131°
2026-04-17 08:24 51.85468 21.09899 18739 ft 399 kts 131°
2026-04-17 08:24 51.84184 21.12034 19090 ft 400 kts 131°
2026-04-17 08:24 51.82238 21.15270 19625 ft 403 kts 131°
2026-04-17 08:25 51.80276 21.18524 20127 ft 405 kts 132°
2026-04-17 08:25 51.78302 21.21798 20667 ft 407 kts 132°
2026-04-17 08:25 51.76321 21.25078 21177 ft 410 kts 131°
2026-04-17 08:25 51.74318 21.28389 21694 ft 413 kts 131°
2026-04-17 08:26 51.72305 21.31712 22237 ft 415 kts 131°
2026-04-17 08:26 51.70273 21.35064 22672 ft 420 kts 131°
2026-04-17 08:26 51.68222 21.38440 23168 ft 423 kts 131°
2026-04-17 08:26 51.66122 21.41776 23657 ft 427 kts 138°
2026-04-17 08:27 51.63569 21.44241 24107 ft 432 kts 160°
2026-04-17 08:27 51.60622 21.45172 24516 ft 433 kts 178°
2026-04-17 08:27 51.57605 21.45522 24862 ft 438 kts 175°
2026-04-17 08:27 51.54560 21.45972 25288 ft 440 kts 175°
2026-04-17 08:28 51.51505 21.46409 25698 ft 442 kts 175°
2026-04-17 08:28 51.48428 21.46846 26108 ft 445 kts 175°
2026-04-17 08:28 51.45338 21.47283 26518 ft 447 kts 175°
2026-04-17 08:28 51.42229 21.47721 26922 ft 450 kts 175°
2026-04-17 08:29 51.39101 21.48162 27300 ft 452 kts 175°
2026-04-17 08:29 51.35964 21.48603 27671 ft 455 kts 175°
2026-04-17 08:29 51.32802 21.49048 28048 ft 457 kts 175°
2026-04-17 08:29 51.29624 21.49492 28424 ft 460 kts 176°
2026-04-17 08:30 51.26425 21.49941 28763 ft 462 kts 176°
2026-04-17 08:30 51.23217 21.50390 29120 ft 464 kts 176°
2026-04-17 08:30 51.19995 21.50840 29532 ft 465 kts 176°
2026-04-17 08:30 51.16804 21.51285 29854 ft 468 kts 176°
2026-04-17 08:31 51.13552 21.51738 30183 ft 470 kts 176°
2026-04-17 08:31 51.10289 21.52191 30469 ft 472 kts 176°
2026-04-17 08:31 51.07008 21.52647 30746 ft 474 kts 176°
2026-04-17 08:31 51.03715 21.53103 31042 ft 476 kts 176°
2026-04-17 08:32 51.00411 21.53561 31311 ft 477 kts 176°
2026-04-17 08:32 50.97101 21.54019 31581 ft 478 kts 176°
2026-04-17 08:32 50.93782 21.54477 31886 ft 479 kts 176°
2026-04-17 08:32 50.90448 21.54937 32142 ft 481 kts 176°
2026-04-17 08:33 50.87108 21.55397 32403 ft 483 kts 176°
2026-04-17 08:33 50.83751 21.55858 32660 ft 485 kts 176°
2026-04-17 08:33 50.80383 21.56321 32916 ft 487 kts 176°
2026-04-17 08:33 50.77002 21.56784 33233 ft 487 kts 177°
2026-04-17 08:34 50.73631 21.57246 33579 ft 486 kts 177°
2026-04-17 08:34 50.70269 21.57706 34037 ft 483 kts 177°
2026-04-17 08:34 50.66925 21.58163 34396 ft 481 kts 177°
2026-04-17 08:34 50.63594 21.58617 34658 ft 481 kts 177°
2026-04-17 08:35 50.60264 21.59070 34924 ft 481 kts 177°
2026-04-17 08:35 50.56931 21.59523 35175 ft 481 kts 177°
2026-04-17 08:35 50.53597 21.59976 35430 ft 480 kts 177°
2026-04-17 08:35 50.50268 21.60427 35686 ft 480 kts 177°
2026-04-17 08:36 50.46938 21.60878 35928 ft 480 kts 177°
2026-04-17 08:36 50.43622 21.61326 36224 ft 478 kts 178°
2026-04-17 08:36 50.40306 21.61774 36453 ft 478 kts 178°
2026-04-17 08:36 50.36988 21.62220 36676 ft 478 kts 178°
2026-04-17 08:37 50.33673 21.62667 36884 ft 478 kts 178°
2026-04-17 08:37 50.30357 21.63113 37105 ft 478 kts 178°
2026-04-17 08:37 50.27038 21.63558 37181 ft 479 kts 178°
2026-04-17 08:38 50.20458 21.64439 37162 ft 476 kts 178°
2026-04-17 08:38 50.13857 21.65321 37160 ft 476 kts 178°
2026-04-17 08:39 50.07257 21.66200 37162 ft 476 kts 178°
2026-04-17 08:39 50.00658 21.67077 37159 ft 476 kts 178°
2026-04-17 08:40 49.94059 21.67951 37164 ft 476 kts 178°
2026-04-17 08:40 49.87467 21.68822 37170 ft 475 kts 178°
2026-04-17 08:41 49.80873 21.69691 37163 ft 475 kts 178°
2026-04-17 08:41 49.74286 21.70556 37149 ft 475 kts 178°
2026-04-17 08:42 49.67709 21.71418 37167 ft 473 kts 178°
2026-04-17 08:42 49.61165 21.72273 37162 ft 471 kts 178°
2026-04-17 08:43 49.54627 21.73125 37153 ft 472 kts 178°
2026-04-17 08:43 49.48085 21.73975 37141 ft 472 kts 178°
2026-04-17 08:44 49.41546 21.74823 37150 ft 471 kts 178°
2026-04-17 08:44 49.35011 21.75668 37151 ft 471 kts 178°
2026-04-17 08:45 49.28475 21.76511 37156 ft 472 kts 178°
2026-04-17 08:45 49.21980 21.77345 37143 ft 471 kts 178°
2026-04-17 08:46 49.15442 21.78184 37143 ft 471 kts 178°
2026-04-17 08:46 49.08924 21.79018 37158 ft 470 kts 178°
2026-04-17 08:47 49.02396 21.79851 37148 ft 470 kts 178°
2026-04-17 08:47 48.95871 21.80681 37136 ft 470 kts 178°
2026-04-17 08:48 48.89352 21.81575 37137 ft 472 kts 174°
2026-04-17 08:48 48.82853 21.83015 37140 ft 472 kts 175°
2026-04-17 08:49 48.76347 21.84384 37115 ft 472 kts 175°
2026-04-17 08:49 48.69834 21.85743 37138 ft 472 kts 175°
2026-04-17 08:50 48.63328 21.87098 37132 ft 472 kts 175°
2026-04-17 08:50 48.56820 21.88448 37134 ft 472 kts 175°
2026-04-17 08:51 48.50314 21.89795 37125 ft 472 kts 175°
2026-04-17 08:51 48.43814 21.91137 37131 ft 472 kts 175°
2026-04-17 08:52 48.37329 21.92663 37119 ft 474 kts 165°
2026-04-17 08:52 48.34301 21.94635 37132 ft 477 kts 151°
2026-04-17 08:52 48.31440 21.97182 37135 ft 480 kts 152°
2026-04-17 08:53 48.25712 22.02321 37128 ft 479 kts 151°
2026-04-17 08:53 48.20013 22.07513 37135 ft 480 kts 151°
2026-04-17 08:54 48.14350 22.12670 37133 ft 479 kts 151°
2026-04-17 08:54 48.08645 22.17854 37132 ft 480 kts 151°
2026-04-17 08:55 48.02938 22.23025 37132 ft 479 kts 151°
2026-04-17 08:55 47.97234 22.28180 37118 ft 479 kts 151°
2026-04-17 08:56 47.91533 22.33320 37133 ft 479 kts 151°
2026-04-17 08:56 47.85825 22.38452 37127 ft 479 kts 151°
2026-04-17 08:57 47.80176 22.43732 37111 ft 481 kts 142°
2026-04-17 08:57 47.77860 22.47312 37136 ft 482 kts 129°
2026-04-17 08:57 47.75747 22.51188 37110 ft 484 kts 131°
2026-04-17 08:58 47.71521 22.58965 37135 ft 484 kts 130°
2026-04-17 08:58 47.67322 22.66778 37135 ft 484 kts 130°
2026-04-17 08:59 47.63123 22.74583 37122 ft 484 kts 130°
2026-04-17 08:59 47.58918 22.82376 37134 ft 484 kts 130°
2026-04-17 09:00 47.54714 22.90147 37129 ft 483 kts 130°
2026-04-17 09:00 47.50530 22.97858 37124 ft 484 kts 130°
2026-04-17 09:01 47.46311 23.05610 37129 ft 484 kts 130°
2026-04-17 09:01 47.42092 23.13340 37123 ft 483 kts 131°
2026-04-17 09:02 47.37870 23.21057 37118 ft 483 kts 131°
2026-04-17 09:02 47.33647 23.28751 37116 ft 483 kts 131°
2026-04-17 09:03 47.29418 23.36435 37114 ft 483 kts 131°
2026-04-17 09:03 47.25185 23.44106 37109 ft 482 kts 131°
2026-04-17 09:04 47.20953 23.51753 37110 ft 482 kts 131°
2026-04-17 09:04 47.16715 23.59388 37111 ft 481 kts 131°
2026-04-17 09:05 47.12480 23.66998 37113 ft 481 kts 132°
2026-04-17 09:05 47.08239 23.74597 37117 ft 481 kts 132°
2026-04-17 09:06 47.03995 23.82181 37118 ft 481 kts 132°
2026-04-17 09:06 46.99749 23.89746 37123 ft 481 kts 132°
2026-04-17 09:07 46.95494 23.97307 37098 ft 481 kts 132°
2026-04-17 09:07 46.91243 24.04841 37115 ft 479 kts 133°
2026-04-17 09:08 46.87002 24.12335 37131 ft 478 kts 133°
2026-04-17 09:08 46.82756 24.19818 37134 ft 479 kts 133°
2026-04-17 09:09 46.78503 24.27294 37105 ft 478 kts 133°
2026-04-17 09:09 46.74252 24.34745 37112 ft 477 kts 133°
2026-04-17 09:10 46.67919 24.45809 37120 ft 476 kts 133°
2026-04-17 09:10 46.63670 24.53207 37120 ft 476 kts 133°
2026-04-17 09:11 46.59419 24.60588 37132 ft 476 kts 133°
2026-04-17 09:11 46.55162 24.67961 37120 ft 476 kts 133°
2026-04-17 09:12 46.50908 24.75307 37109 ft 475 kts 133°
2026-04-17 09:12 46.46644 24.82651 37112 ft 476 kts 133°
2026-04-17 09:13 46.42380 24.89975 37107 ft 475 kts 134°
2026-04-17 09:13 46.38109 24.97296 37101 ft 476 kts 134°
2026-04-17 09:14 46.34553 25.03373 37108 ft 476 kts 134°
2026-04-17 09:14 46.30268 25.10678 37088 ft 476 kts 134°
2026-04-17 09:15 46.25981 25.17969 37091 ft 476 kts 134°
2026-04-17 09:15 46.21694 25.25240 37082 ft 475 kts 134°
2026-04-17 09:16 46.17408 25.32491 37094 ft 475 kts 134°
2026-04-17 09:16 46.13114 25.39735 37087 ft 475 kts 134°
2026-04-17 09:17 46.08823 25.46955 37082 ft 474 kts 134°
2026-04-17 09:17 46.04542 25.54140 37085 ft 472 kts 135°
2026-04-17 09:18 46.00255 25.61317 37090 ft 473 kts 135°
2026-04-17 09:18 45.95965 25.68481 37080 ft 472 kts 135°
2026-04-17 09:19 45.91671 25.75631 37086 ft 472 kts 135°
2026-04-17 09:19 45.87388 25.82744 37085 ft 471 kts 135°
2026-04-17 09:20 45.83130 25.89799 37085 ft 471 kts 135°
2026-04-17 09:20 45.78840 25.96890 37077 ft 471 kts 135°
2026-04-17 09:21 45.74543 26.03973 37075 ft 470 kts 135°
2026-04-17 09:21 45.70256 26.11020 37078 ft 469 kts 135°
2026-04-17 09:22 45.65964 26.18058 37078 ft 469 kts 135°
2026-04-17 09:22 45.61670 26.25083 37086 ft 469 kts 135°
2026-04-17 09:23 45.57378 26.32086 37082 ft 466 kts 134°
2026-04-17 09:23 45.53106 26.39039 37096 ft 466 kts 134°
2026-04-17 09:24 45.48833 26.45976 37089 ft 466 kts 134°
2026-04-17 09:24 45.44554 26.52906 37096 ft 465 kts 134°
2026-04-17 09:25 45.40281 26.59809 37104 ft 464 kts 134°
2026-04-17 09:25 45.36009 26.66692 37111 ft 464 kts 134°
2026-04-17 09:26 45.31736 26.73561 37111 ft 464 kts 134°
2026-04-17 09:26 45.27461 26.80415 37110 ft 464 kts 134°
2026-04-17 09:27 45.23183 26.87257 37114 ft 462 kts 134°
2026-04-17 09:27 45.18914 26.94070 37115 ft 462 kts 134°
2026-04-17 09:28 45.14638 27.00875 37118 ft 462 kts 134°
2026-04-17 09:28 45.10361 27.07667 37118 ft 462 kts 134°
2026-04-17 09:29 45.06113 27.14395 37119 ft 461 kts 134°
2026-04-17 09:29 45.01842 27.21144 37126 ft 461 kts 134°
2026-04-17 09:30 44.97569 27.27879 37129 ft 461 kts 134°
2026-04-17 09:30 44.93286 27.34614 37129 ft 461 kts 134°
2026-04-17 09:31 44.89005 27.41330 37124 ft 460 kts 134°
2026-04-17 09:31 44.84717 27.48040 37125 ft 460 kts 134°
2026-04-17 09:32 44.80428 27.54736 37127 ft 460 kts 134°
2026-04-17 09:32 44.76130 27.61430 37117 ft 460 kts 134°
2026-04-17 09:33 44.71837 27.68099 37128 ft 460 kts 134°
2026-04-17 09:33 44.67538 27.74763 37132 ft 460 kts 134°
2026-04-17 09:34 44.63231 27.81423 37129 ft 460 kts 134°
2026-04-17 09:34 44.58926 27.88065 37125 ft 460 kts 134°
2026-04-17 09:35 44.54614 27.94700 37130 ft 460 kts 134°
2026-04-17 09:35 44.50298 28.01327 37136 ft 460 kts 135°
2026-04-17 09:36 44.45976 28.07946 37128 ft 460 kts 135°
2026-04-17 09:36 44.41677 28.14516 37143 ft 461 kts 135°
2026-04-17 09:37 44.37312 28.21170 37152 ft 463 kts 135°
2026-04-17 09:37 44.32983 28.27755 37150 ft 463 kts 135°
2026-04-17 09:38 44.28623 28.34369 37127 ft 463 kts 135°
2026-04-17 09:38 44.24253 28.40984 37142 ft 464 kts 135°
2026-04-17 09:39 44.19876 28.47594 37136 ft 464 kts 135°
2026-04-17 09:39 44.15497 28.54193 37140 ft 464 kts 135°
2026-04-17 09:40 44.11112 28.60781 37134 ft 464 kts 136°
2026-04-17 09:40 44.06720 28.67369 37136 ft 464 kts 136°
2026-04-17 09:41 44.02328 28.73939 37127 ft 463 kts 136°
2026-04-17 09:41 43.97937 28.80494 37124 ft 463 kts 136°
2026-04-17 09:42 43.93546 28.87031 37122 ft 462 kts 136°
2026-04-17 09:42 43.89160 28.93548 37127 ft 462 kts 136°
2026-04-17 09:43 43.84770 29.00054 37119 ft 462 kts 136°
2026-04-17 09:43 43.80380 29.06546 37120 ft 462 kts 136°
2026-04-17 09:44 43.75990 29.13023 37104 ft 461 kts 136°
2026-04-17 09:44 43.71601 29.19483 37116 ft 461 kts 136°
2026-04-17 09:45 43.67213 29.25928 37114 ft 459 kts 136°
2026-04-17 09:45 43.62834 29.32343 37100 ft 458 kts 136°
2026-04-17 09:46 43.58467 29.38728 37101 ft 457 kts 136°
2026-04-17 09:46 43.54126 29.45060 37102 ft 457 kts 136°
2026-04-17 09:47 43.49756 29.51420 37100 ft 457 kts 136°
2026-04-17 09:47 43.45383 29.57770 37091 ft 456 kts 136°
2026-04-17 09:48 43.41020 29.64091 37091 ft 456 kts 136°
2026-04-17 09:48 43.36651 29.70406 37092 ft 456 kts 136°
2026-04-17 09:49 43.32282 29.76709 37085 ft 455 kts 136°
2026-04-17 09:49 43.27918 29.82989 37080 ft 454 kts 136°
2026-04-17 09:50 43.23553 29.89260 37083 ft 454 kts 136°
2026-04-17 09:50 43.19183 29.95525 37078 ft 454 kts 136°
2026-04-17 09:51 43.14813 30.01777 37070 ft 454 kts 137°
2026-04-17 09:51 43.10445 30.08012 37074 ft 453 kts 137°
2026-04-17 09:52 43.06074 30.14237 37070 ft 453 kts 137°
2026-04-17 09:52 43.01701 30.20453 37067 ft 453 kts 137°
2026-04-17 09:53 42.97327 30.26657 37063 ft 452 kts 137°
2026-04-17 09:53 42.92970 30.32823 37059 ft 451 kts 137°
2026-04-17 09:54 42.88612 30.38977 37053 ft 451 kts 137°
2026-04-17 09:54 42.84253 30.45120 37054 ft 451 kts 137°
2026-04-17 09:55 42.79917 30.51217 37052 ft 450 kts 137°
2026-04-17 09:55 42.75654 30.57465 37028 ft 453 kts 127°
2026-04-17 09:56 42.74123 30.61206 37046 ft 456 kts 115°
2026-04-17 09:56 42.73195 30.65353 37018 ft 461 kts 101°
2026-04-17 09:56 42.72518 30.74040 37025 ft 461 kts 102°
2026-04-17 09:57 42.71566 30.82689 37354 ft 463 kts 100°
2026-04-17 09:57 42.71116 30.87019 37621 ft 462 kts 100°
2026-04-17 09:57 42.70670 30.91342 37893 ft 461 kts 100°
2026-04-17 09:58 42.70225 30.95660 38155 ft 460 kts 100°
2026-04-17 09:58 42.69779 30.99961 38408 ft 459 kts 100°
2026-04-17 09:58 42.69334 31.04245 38664 ft 458 kts 100°
2026-04-17 09:58 42.68887 31.08528 38842 ft 457 kts 100°
2026-04-17 09:59 42.68440 31.12800 38978 ft 456 kts 100°
2026-04-17 09:59 42.67991 31.17072 39039 ft 458 kts 100°
2026-04-17 09:59 42.67092 31.25576 39024 ft 457 kts 100°
2026-04-17 10:00 42.66182 31.34130 39039 ft 457 kts 100°
2026-04-17 10:00 42.65264 31.42684 39027 ft 458 kts 100°
2026-04-17 10:01 42.64341 31.51240 39019 ft 458 kts 100°
2026-04-17 10:01 42.63408 31.59813 39025 ft 459 kts 101°
2026-04-17 10:02 42.62469 31.68384 39018 ft 459 kts 101°
2026-04-17 10:02 42.61523 31.76956 39020 ft 459 kts 101°
2026-04-17 10:03 42.60733 31.84071 39008 ft 459 kts 101°
2026-04-17 10:03 42.59776 31.92643 39017 ft 460 kts 101°
2026-04-17 10:04 42.58813 32.01222 39011 ft 460 kts 101°
2026-04-17 10:04 42.57842 32.09800 39018 ft 460 kts 101°
2026-04-17 10:05 42.56865 32.18373 39018 ft 460 kts 101°
2026-04-17 10:05 42.55882 32.26942 39005 ft 460 kts 101°
2026-04-17 10:06 42.54891 32.35523 39004 ft 460 kts 101°
2026-04-17 10:06 42.53893 32.44105 39011 ft 461 kts 101°
2026-04-17 10:07 42.52888 32.52687 39007 ft 461 kts 101°
2026-04-17 10:07 42.51876 32.61264 38998 ft 461 kts 101°
2026-04-17 10:08 42.50857 32.69856 38997 ft 461 kts 101°
2026-04-17 10:08 42.49831 32.78446 39000 ft 462 kts 101°
2026-04-17 10:09 42.48799 32.87032 39002 ft 462 kts 102°
2026-04-17 10:09 42.47760 32.95616 38999 ft 461 kts 102°
2026-04-17 10:10 42.46716 33.04192 39003 ft 461 kts 102°
2026-04-17 10:11 42.45135 33.17052 38998 ft 461 kts 102°
2026-04-17 10:11 42.44071 33.25630 39010 ft 462 kts 102°
2026-04-17 10:12 42.43007 33.34142 39006 ft 463 kts 102°
2026-04-17 10:12 42.41930 33.42723 39000 ft 463 kts 102°
2026-04-17 10:13 42.40846 33.51304 39004 ft 462 kts 102°
2026-04-17 10:13 42.39759 33.59865 39014 ft 462 kts 102°
2026-04-17 10:14 42.38663 33.68430 39012 ft 462 kts 102°
2026-04-17 10:14 42.37561 33.76994 39018 ft 462 kts 102°
2026-04-17 10:15 42.36452 33.85564 39013 ft 462 kts 102°
2026-04-17 10:15 42.35341 33.94124 39020 ft 462 kts 102°
2026-04-17 10:16 42.34223 34.02684 39007 ft 463 kts 102°
2026-04-17 10:16 42.33097 34.11253 39014 ft 463 kts 102°
2026-04-17 10:17 42.31965 34.19824 39016 ft 463 kts 102°
2026-04-17 10:17 42.30825 34.28395 39019 ft 463 kts 102°
2026-04-17 10:18 42.29679 34.36965 39011 ft 464 kts 102°
2026-04-17 10:18 42.28526 34.45528 39024 ft 464 kts 102°
2026-04-17 10:19 42.27367 34.54081 39030 ft 462 kts 102°
2026-04-17 10:19 42.26206 34.62602 39029 ft 462 kts 102°
2026-04-17 10:20 42.25039 34.71119 39018 ft 462 kts 102°
2026-04-17 10:20 42.23865 34.79633 39026 ft 461 kts 102°
2026-04-17 10:21 42.22682 34.88138 39040 ft 461 kts 102°
2026-04-17 10:21 42.21502 34.96581 39040 ft 461 kts 102°
2026-04-17 10:22 42.20307 35.05083 39042 ft 461 kts 102°
2026-04-17 10:22 42.19107 35.13572 39049 ft 460 kts 102°
2026-04-17 10:23 42.17903 35.22036 39050 ft 460 kts 102°
2026-04-17 10:23 42.16692 35.30507 39056 ft 460 kts 102°
2026-04-17 10:24 42.15477 35.38968 39056 ft 460 kts 102°
2026-04-17 10:24 42.14257 35.47425 39064 ft 460 kts 102°
2026-04-17 10:25 42.13036 35.55847 39057 ft 456 kts 102°
2026-04-17 10:25 42.11814 35.64233 39059 ft 456 kts 103°
2026-04-17 10:26 42.10585 35.72618 39064 ft 456 kts 103°
2026-04-17 10:26 42.09350 35.81007 39062 ft 456 kts 103°
2026-04-17 10:27 42.08109 35.89385 39067 ft 456 kts 103°
2026-04-17 10:27 42.06862 35.97762 39066 ft 456 kts 103°
2026-04-17 10:28 42.05609 36.06136 39067 ft 456 kts 103°
2026-04-17 10:28 42.04350 36.14504 39065 ft 457 kts 103°
2026-04-17 10:29 42.03083 36.22884 39070 ft 457 kts 103°
2026-04-17 10:29 42.01810 36.31253 39069 ft 457 kts 103°
2026-04-17 10:30 42.00531 36.39621 39070 ft 457 kts 103°
2026-04-17 10:30 41.99255 36.47934 39084 ft 457 kts 103°
2026-04-17 10:31 41.97964 36.56298 39073 ft 457 kts 103°
2026-04-17 10:31 41.96665 36.64666 39073 ft 457 kts 103°
2026-04-17 10:32 41.95362 36.73023 39072 ft 457 kts 103°
2026-04-17 10:32 41.94052 36.81381 39072 ft 457 kts 103°
2026-04-17 10:33 41.92735 36.89744 39074 ft 458 kts 103°
2026-04-17 10:33 41.91411 36.98115 39072 ft 458 kts 103°
2026-04-17 10:34 41.90361 37.06529 39061 ft 457 kts 90°
2026-04-17 10:34 41.90251 37.15081 39063 ft 459 kts 91°
2026-04-17 10:35 41.90119 37.23655 39073 ft 460 kts 91°
2026-04-17 10:35 41.89987 37.32235 39079 ft 460 kts 91°
2026-04-17 10:36 41.89849 37.40821 39076 ft 460 kts 91°
2026-04-17 10:36 41.89704 37.49407 39078 ft 460 kts 91°
2026-04-17 10:37 41.89553 37.57998 39076 ft 460 kts 91°
2026-04-17 10:37 41.89395 37.66594 39075 ft 461 kts 91°
2026-04-17 10:38 41.89231 37.75201 39075 ft 461 kts 91°
2026-04-17 10:38 41.89061 37.83753 39075 ft 461 kts 91°
2026-04-17 10:39 41.88885 37.92365 39081 ft 462 kts 91°
2026-04-17 10:39 41.88701 38.00975 39078 ft 462 kts 91°
2026-04-17 10:40 41.88511 38.09585 39076 ft 462 kts 91°
2026-04-17 10:40 41.88314 38.18209 39075 ft 462 kts 91°
2026-04-17 10:41 41.88111 38.26824 39075 ft 462 kts 91°
2026-04-17 10:41 41.87902 38.35439 39072 ft 462 kts 91°
2026-04-17 10:42 41.87685 38.44062 39075 ft 462 kts 91°
2026-04-17 10:42 41.87463 38.52687 39076 ft 463 kts 91°
2026-04-17 10:43 41.87234 38.61318 39072 ft 463 kts 91°
2026-04-17 10:43 41.86998 38.69953 39075 ft 463 kts 91°
2026-04-17 10:44 41.86755 38.78587 39070 ft 463 kts 91°
2026-04-17 10:44 41.86507 38.87214 39072 ft 463 kts 91°
2026-04-17 10:45 41.86251 38.95859 39073 ft 464 kts 91°
2026-04-17 10:45 41.85989 39.04503 39079 ft 464 kts 91°
2026-04-17 10:46 41.85720 39.13155 39072 ft 466 kts 91°
2026-04-17 10:46 41.85444 39.21847 39072 ft 466 kts 91°
2026-04-17 10:47 41.85162 39.30530 39068 ft 466 kts 91°
2026-04-17 10:47 41.84874 39.39237 39071 ft 467 kts 91°
2026-04-17 10:48 41.84579 39.47946 39073 ft 467 kts 91°
2026-04-17 10:48 41.84274 39.56592 39073 ft 467 kts 91°
2026-04-17 10:49 41.83964 39.65294 39082 ft 467 kts 91°
2026-04-17 10:49 41.83648 39.74002 39068 ft 468 kts 91°
2026-04-17 10:50 41.83325 39.82738 39071 ft 469 kts 91°
2026-04-17 10:50 41.82995 39.91472 39070 ft 469 kts 91°
2026-04-17 10:51 41.82658 40.00213 39072 ft 469 kts 91°
2026-04-17 10:51 41.82373 40.07473 39070 ft 469 kts 91°
2026-04-17 10:52 41.82021 40.16270 39066 ft 470 kts 91°
2026-04-17 10:52 41.81665 40.24977 39075 ft 471 kts 91°
2026-04-17 10:53 41.81300 40.33753 39065 ft 472 kts 91°
2026-04-17 10:53 41.80928 40.42529 39063 ft 472 kts 91°
2026-04-17 10:54 41.80549 40.51313 39060 ft 472 kts 91°
2026-04-17 10:54 41.80164 40.60097 39060 ft 472 kts 91°
2026-04-17 10:55 41.80678 40.68722 39070 ft 461 kts 71°
2026-04-17 10:55 41.82350 40.77081 39056 ft 465 kts 71°
2026-04-17 10:56 41.84072 40.85452 39061 ft 466 kts 71°
2026-04-17 10:56 41.85810 40.93813 39060 ft 465 kts 71°
2026-04-17 10:57 41.87545 41.02178 39063 ft 465 kts 71°
2026-04-17 10:57 41.89274 41.10553 39065 ft 466 kts 71°
2026-04-17 10:58 41.91000 41.18943 39057 ft 468 kts 71°
2026-04-17 10:58 41.92727 41.27377 39051 ft 469 kts 71°
2026-04-17 10:59 41.94450 41.35821 39048 ft 469 kts 71°
2026-04-17 10:59 41.96167 41.44272 39049 ft 469 kts 71°
2026-04-17 11:00 41.97878 41.52733 39041 ft 470 kts 71°
2026-04-17 11:00 41.99588 41.61218 39049 ft 470 kts 71°
2026-04-17 11:01 42.01291 41.69707 39040 ft 471 kts 71°
2026-04-17 11:01 42.02978 41.78152 39035 ft 470 kts 71°
2026-04-17 11:02 42.04670 41.86657 39037 ft 471 kts 71°
2026-04-17 11:02 42.06359 41.95185 39029 ft 473 kts 71°
2026-04-17 11:03 42.08047 42.03744 39015 ft 473 kts 71°
2026-04-17 11:03 42.08888 42.08022 38854 ft 473 kts 71°
2026-04-17 11:03 42.09727 42.12298 38547 ft 469 kts 71°
2026-04-17 11:03 42.10559 42.16544 37680 ft 472 kts 71°
2026-04-17 11:04 42.11397 42.20833 36853 ft 475 kts 71°
2026-04-17 11:04 42.12233 42.25125 36277 ft 472 kts 71°
2026-04-17 11:04 42.13059 42.29370 35879 ft 465 kts 70°
2026-04-17 11:04 42.13871 42.33556 35456 ft 459 kts 70°
2026-04-17 11:05 42.14674 42.37704 34945 ft 456 kts 70°
2026-04-17 11:05 42.15473 42.41832 34382 ft 455 kts 70°
2026-04-17 11:05 42.16267 42.45952 33808 ft 454 kts 70°
2026-04-17 11:05 42.17057 42.50062 33219 ft 452 kts 70°
2026-04-17 11:06 42.17839 42.54136 32735 ft 448 kts 70°
2026-04-17 11:06 42.18606 42.58135 32241 ft 445 kts 70°
2026-04-17 11:06 42.19376 42.62158 31734 ft 442 kts 69°
2026-04-17 11:06 42.20141 42.66166 31216 ft 440 kts 69°
2026-04-17 11:07 42.20898 42.70143 30715 ft 437 kts 69°
2026-04-17 11:07 42.21651 42.74105 30229 ft 435 kts 69°
2026-04-17 11:07 42.22399 42.78052 29671 ft 433 kts 69°
2026-04-17 11:07 42.23140 42.81968 29163 ft 429 kts 70°
2026-04-17 11:08 42.23875 42.85855 28701 ft 425 kts 70°
2026-04-17 11:08 42.24602 42.89703 28267 ft 421 kts 70°
2026-04-17 11:08 42.25321 42.93519 27811 ft 418 kts 70°
2026-04-17 11:08 42.26033 42.97304 27359 ft 415 kts 70°
2026-04-17 11:09 42.26739 43.01062 26930 ft 412 kts 71°
2026-04-17 11:09 42.27379 43.04821 26436 ft 412 kts 79°
2026-04-17 11:09 42.27301 43.08706 25977 ft 418 kts 99°
2026-04-17 11:10 42.25594 43.16154 25217 ft 412 kts 106°
2026-04-17 11:10 42.24718 43.19831 24791 ft 410 kts 106°
2026-04-17 11:10 42.23836 43.23489 24379 ft 408 kts 107°
2026-04-17 11:10 42.22956 43.27123 23975 ft 407 kts 107°
2026-04-17 11:11 42.22077 43.30742 23523 ft 405 kts 107°
2026-04-17 11:11 42.21202 43.34341 23056 ft 403 kts 107°
2026-04-17 11:11 42.20331 43.37918 22649 ft 400 kts 107°
2026-04-17 11:11 42.19466 43.41460 22245 ft 396 kts 107°
2026-04-17 11:12 42.18609 43.44969 21850 ft 393 kts 107°
2026-04-17 11:12 42.17757 43.48449 21448 ft 390 kts 107°
2026-04-17 11:12 42.16919 43.51867 21075 ft 387 kts 107°
2026-04-17 11:12 42.16077 43.55299 20688 ft 385 kts 107°
2026-04-17 11:13 42.15238 43.58708 20295 ft 382 kts 107°
2026-04-17 11:13 42.14403 43.62102 19915 ft 380 kts 107°
2026-04-17 11:13 42.13573 43.65468 19536 ft 378 kts 107°
2026-04-17 11:13 42.12745 43.68820 19152 ft 376 kts 107°
2026-04-17 11:14 42.11919 43.72156 18768 ft 374 kts 107°
2026-04-17 11:14 42.11098 43.75470 18392 ft 372 kts 107°
2026-04-17 11:14 42.10280 43.78768 17981 ft 370 kts 107°
2026-04-17 11:14 42.09467 43.82046 17585 ft 368 kts 108°
2026-04-17 11:15 42.08656 43.85304 17205 ft 365 kts 108°
2026-04-17 11:15 42.07853 43.88528 16831 ft 362 kts 108°
2026-04-17 11:15 42.07054 43.91736 16470 ft 360 kts 108°
2026-04-17 11:15 42.06260 43.94911 16105 ft 357 kts 108°
2026-04-17 11:16 42.05469 43.98074 15747 ft 355 kts 108°
2026-04-17 11:16 42.04685 44.01206 15379 ft 353 kts 108°
2026-04-17 11:16 42.03902 44.04331 15033 ft 351 kts 108°
2026-04-17 11:16 42.03122 44.07439 14640 ft 350 kts 108°
2026-04-17 11:17 42.02341 44.10550 14177 ft 352 kts 108°
2026-04-17 11:17 42.01594 44.13682 13708 ft 352 kts 103°
2026-04-17 11:17 42.01087 44.16902 13265 ft 352 kts 101°
2026-04-17 11:17 42.00576 44.20103 12910 ft 348 kts 102°
2026-04-17 11:18 42.00055 44.23269 12563 ft 345 kts 102°
2026-04-17 11:18 41.99532 44.26397 12211 ft 342 kts 102°
2026-04-17 11:18 41.99009 44.29495 11869 ft 339 kts 103°
2026-04-17 11:18 41.98486 44.32574 11511 ft 337 kts 103°
2026-04-17 11:19 41.97967 44.35626 11266 ft 332 kts 103°
2026-04-17 11:19 41.97459 44.38606 11021 ft 321 kts 103°
2026-04-17 11:19 41.96965 44.41495 10657 ft 315 kts 103°
2026-04-17 11:19 41.96475 44.44354 10172 ft 313 kts 103°
2026-04-17 11:20 41.95989 44.47199 9665 ft 310 kts 103°
2026-04-17 11:20 41.95520 44.49996 9271 ft 304 kts 103°
2026-04-17 11:20 41.95061 44.52739 8884 ft 298 kts 103°
2026-04-17 11:20 41.94616 44.55380 8600 ft 288 kts 103°
2026-04-17 11:21 41.94181 44.57960 8332 ft 278 kts 103°
2026-04-17 11:21 41.93682 44.60450 8079 ft 267 kts 116°
2026-04-17 11:21 41.92630 44.62383 7962 ft 255 kts 133°
2026-04-17 11:21 41.91435 44.64097 7821 ft 248 kts 134°
2026-04-17 11:22 41.90244 44.65730 7701 ft 239 kts 135°
2026-04-17 11:22 41.89098 44.67246 7597 ft 224 kts 136°
2026-04-17 11:22 41.88004 44.68661 7460 ft 212 kts 136°
2026-04-17 11:22 41.86964 44.69992 7324 ft 201 kts 136°
2026-04-17 11:23 41.85974 44.71254 7151 ft 193 kts 136°
2026-04-17 11:23 41.85002 44.72484 6884 ft 190 kts 135°
2026-04-17 11:23 41.84045 44.73691 6600 ft 187 kts 136°
2026-04-17 11:23 41.83108 44.74876 6353 ft 184 kts 137°
2026-04-17 11:24 41.82171 44.76048 6047 ft 184 kts 136°
2026-04-17 11:24 41.81242 44.77214 5774 ft 182 kts 136°
2026-04-17 11:24 41.80320 44.78372 5494 ft 181 kts 136°
2026-04-17 11:24 41.79403 44.79519 5212 ft 180 kts 136°
2026-04-17 11:25 41.78493 44.80659 4957 ft 178 kts 136°
2026-04-17 11:25 41.77589 44.81795 4673 ft 178 kts 136°
2026-04-17 11:25 41.76684 44.82926 4372 ft 178 kts 136°
2026-04-17 11:25 41.75783 44.84047 4078 ft 173 kts 136°
2026-04-17 11:26 41.74914 44.85136 3826 ft 169 kts 135°
2026-04-17 11:26 41.74089 44.86168 3587 ft 153 kts 135°
2026-04-17 11:26 41.73329 44.87114 3373 ft 146 kts 136°
2026-04-17 11:26 41.72595 44.88034 3095 ft 143 kts 137°
2026-04-17 11:27 41.71867 44.88946 2851 ft 146 kts 139°
2026-04-17 11:27 41.71115 44.89867 2571 ft 145 kts 140°
2026-04-17 11:27 41.70370 44.90765 2367 ft 144 kts 139°
2026-04-17 11:27 41.69631 44.91687 2150 ft 147 kts 138°
2026-04-17 11:28 41.68890 44.92618 1938 ft 143 kts 137°
2026-04-17 11:28 41.68187 44.93518 1714 ft 139 kts 137°
2026-04-17 11:28 41.67481 44.94404 1529 ft 135 kts 137°
2026-04-17 11:28 41.66906 44.95125 1529 ft 81 kts 137°
2026-04-17 11:29 41.66569 44.95547 1523 ft 65 kts 137°
2026-04-17 11:29 41.66270 44.95920 1529 ft 51 kts 137°
2026-04-17 11:29 41.66018 44.96237 1524 ft 49 kts 137°
2026-04-17 11:29 41.65860 44.96438 1526 ft 17 kts 125°
2026-04-17 11:30 41.65869 44.96581 1526 ft 17 kts 43°
2026-04-17 11:30 41.65975 44.96552 1520 ft 18 kts 316°
2026-04-17 11:30 41.66071 44.96427 1526 ft 20 kts 316°
2026-04-17 11:30 41.66189 44.96311 1527 ft 22 kts 341°
2026-04-17 11:31 41.66322 44.96312 1526 ft 16 kts 12°
2026-04-17 11:31 41.66441 44.96348 1524 ft 19 kts 13°
2026-04-17 11:31 41.66568 44.96390 1526 ft 15 kts 15°
2026-04-17 11:31 41.66657 44.96422 1524 ft 13 kts 15°
2026-04-17 11:32 41.66744 44.96399 1529 ft 12 kts 319°
2026-04-17 11:32 41.66794 44.96334 1525 ft 1 kts 330°
2026-04-17 11:32 41.66803 44.96334 1526 ft 2 kts
2026-04-17 11:32 41.66831 44.96355 1529 ft 6 kts 43°
2026-04-17 11:33 41.66859 44.96390 1529 ft 2 kts 44°
2026-04-17 11:33 41.66860 44.96392 1529 ft 0 kts 44°